This is the latest recevied weather packets stored in our database for station/object N1OF. If no packets are shown the sender has not sent any weather packets the latest 10 day(s).
| Time | Temp. | Humidity | Pressure | Rain* | Wind** | Luminosity | Snow |
|---|---|---|---|---|---|---|---|
| 1777634472 | 5.56° C | 95% | 1012.9 hPa | 0 mm | - | - | - |
| 1777634169 | 5.56° C | 95% | 1013 hPa | 0 mm | - | - | - |
| 1777633866 | 5.56° C | 95% | 1012.8 hPa | 0 mm | - | - | - |
| 1777633564 | 5.56° C | 95% | 1012.6 hPa | 0 mm | - | - | - |
| 1777633261 | 5.56° C | 95% | 1013 hPa | 0 mm | - | - | - |
| 1777632958 | 5.56° C | 95% | 1012.8 hPa | 0 mm | - | - | - |
| 1777632654 | 5.56° C | 95% | 1012.7 hPa | 0 mm | - | - | - |
| 1777632351 | 5.56° C | 95% | 1013.2 hPa | 0 mm | - | - | - |
| 1777632048 | 5.56° C | 95% | 1013.3 hPa | 0 mm | - | - | - |
| 1777631746 | 5.56° C | 95% | 1013.3 hPa | 0 mm | - | - | - |
| 1777631443 | 5.56° C | 95% | 1013.1 hPa | 1.27 mm | - | - | - |
| 1777631140 | 5.56° C | 94% | 1013.1 hPa | 0 mm | - | - | - |
| 1777630838 | 5.56° C | 94% | 1013 hPa | 1.78 mm | - | - | - |
| 1777630533 | 5.56° C | 94% | 1012.9 hPa | 1.78 mm | - | - | - |
| 1777630230 | 5.56° C | 94% | 1012.9 hPa | 0 mm | - | - | - |
| 1777629929 | 5.56° C | 94% | 1012.8 hPa | 0 mm | - | - | - |
| 1777629626 | 5.56° C | 94% | 1013.1 hPa | 0 mm | - | - | - |
| 1777629322 | 5.56° C | 94% | 1013.2 hPa | 0 mm | - | - | - |
| 1777629017 | 5.56° C | 94% | 1013 hPa | 0 mm | - | - | - |
| 1777628715 | 5.56° C | 94% | 1013.1 hPa | 0 mm | - | - | - |
| 1777628410 | 5.56° C | 93% | 1013.1 hPa | 0 mm | - | - | - |
| 1777628107 | 5.56° C | 93% | 1013.4 hPa | 0 mm | - | - | - |
| 1777627802 | 5.56° C | 93% | 1013.5 hPa | 1.78 mm | - | - | - |
| 1777627495 | 5.56° C | 93% | 1013.4 hPa | 1.78 mm | - | - | - |
| 1777627191 | 5.56° C | 92% | 1013.6 hPa | 1.27 mm | - | - | - |
* Rain latest hour (hover to see other rain measurements)
** Current wind speed in m/s (hover to see current wind gust speed)